DELTA 1 DEB, 3126

Orbit data source: Space-Track

DELTA 1 DEB, 3126 is space debris in LEO originally from a launch on Thu, 11 Jan 1968 UTC launched from the Air Force Western Test Range (AFWTR). Debris objects in space refer to the collection of defunct objects orbiting the Earth. Examples of debris include non-operational satellites, rocket bodies, and fragments generated from explosions, collisions, or faulty payload assembly.

Loading next visibility...
Identifier
3126, 1968-002C
Orbit
LEO
Country
Flag of USUS
Related business
Manufacturer
Unknown
Mission
Spacecraft
Bus & Motor
Unknown
Mass
Unknown
Launch date (UTC)
1968-01-11 (58 years ago)
Launch vehicle
Unknown
Launch site
Air Force Western Test Range (AFWTR)
Object type
Payload
Rocket body
Debris
Shape & HBR
Unknown shape, 0.1 m
Radar Cross Section
Small (<0.1 m²)

Expand to show TLE details & history
Last TLE update: 1 day ago

TLE from 1 day ago
0 DELTA 1 DEB
1 03126U 68002C   25346.20038543 -.00000033  00000-0  14681-3 0  9993
2 03126 106.0667 212.0557 0320837  97.7060  23.3350 12.82456647710317
Epoch: 2025-12-12T04:48Z
TLE epoch observation values (Epoch: 2025-12-12T04:48:33.301Z)
Latitude
54.19779°
Longitude
-97.82258°
Altitude
1,114.273 km
Speed
7.407 km/s
True Right ascension
03h 41m 50s
True Declination
54° 02' 32"
Sunlit
Object was in full shadow at epoch
Visualization orbit readout
Latitude
Unknown
Longitude
Unknown
Altitude
Unknown
Speed
Unknown
Apparent Right ascension
Unknown
Apparent Declination
Unknown
Sunlit
N/A
Visualization observer readout
Local Sidereal Time
03:11:35
Azimuth
Unknown
Elevation
Unknown
Doppler factor
Unknown
Orbital elements
Apogee altitude
1,576.697 km
Perigee altitude
1,082.124 km
Semi-major axis
7,707.547 km
Eccentricity
0.03208
Inclination
106.0667°
RAAN
212.0557°
Arg. of periapsis
97.706°
True anomaly
24.84671°
Mean anomaly
23.335°
Eccentric anomaly
24.08518°
Mean motion
3.20752 °/min
Orbital period
112.24 mins
BSTAR
0.00014681
Loading maneuver chart data...
Computing Atmospheric mass density...
Loading historical data...
Loading historical data...
Loading historical data...
Loading historical data...
Loading historical data...
Loading historical data...
Loading historical data...

Documentation

Showing up to 5 results
|